User: anonymous   Login
Location: Elmsmere
(40.9284°N, 73.8207°W)
Time: 15:23:55
(UTC+00:00)
Language:

STARLINK-2740 - Orbit

View from above orbital plane
View from above orbital plane
View from above satellite
View from above satellite

Ground track
Ground track

The orbit data is extracted from the following two-line orbital elements,

1 48690C 21044BE  21263.39428766 -.00979808  00000-0 -24851-1 0  2635
2 48690  53.0430 206.9442 0001298  74.4946 162.5549 15.40099020    18
Epoch (UTC): 20 September 2021 09:27:46
Eccentricity: 0.0001298
inclination: 53.0430°
perigee height: 445 km
apogee height: 447 km
right ascension of ascending node: 206.9442°
argument of perigee: 74.4946°
revolutions per day: 15.40099020
mean anomaly at epoch: 162.5549°
orbit number at epoch: 1

The dashed part of the orbit path shows where the satellite is in the earth's shadow,  

DLR